CSN0322 ZUCK-ZSFZ

Flight info

Callsign CSN0322
Flight time 2h 21m
Altitude 35100
Route VILUS W180 LIDMA W182 LAGEX G586 WYN MABAG XEBUL NUVGA VETIB W155 TEBON A470 ENVEN
Aircraft A320/M-SDE3FGHIRWY/LB1

Departure

Time 2026-04-25 13:30
Airport Chongqing Jiangbei International Airport (ZUCK)

Arrival

Time 2026-04-25 15:51
Airport Fuzhou Changle International Airport (ZSFZ)
Time Latitude Longitude Altitude Speed Heading
2026-04-25 12:59 29.71566 106.64970 1373 ft 0 kts 84°
2026-04-25 13:17 29.71566 106.64964 1373 ft 3 kts 84°
2026-04-25 13:17 29.71563 106.64933 1373 ft 3 kts 84°
2026-04-25 13:17 29.71561 106.64903 1373 ft 3 kts 84°
2026-04-25 13:18 29.71561 106.64874 1373 ft 3 kts 111°
2026-04-25 13:18 29.71579 106.64856 1373 ft 3 kts 165°
2026-04-25 13:18 29.71583 106.64855 1373 ft 0 kts 171°
2026-04-25 13:20 29.71581 106.64855 1373 ft 0 kts 171°
2026-04-25 13:21 29.71570 106.64857 1373 ft 2 kts 169°
2026-04-25 13:21 29.71532 106.64867 1373 ft 10 kts 168°
2026-04-25 13:21 29.71458 106.64864 1373 ft 10 kts 193°
2026-04-25 13:21 29.71440 106.64793 1373 ft 10 kts 292°
2026-04-25 13:22 29.71464 106.64716 1373 ft 10 kts 268°
2026-04-25 13:22 29.71410 106.64677 1373 ft 10 kts 196°
2026-04-25 13:22 29.71341 106.64652 1373 ft 11 kts 197°
2026-04-25 13:23 29.71188 106.64599 1373 ft 11 kts 197°
2026-04-25 13:23 29.71110 106.64571 1373 ft 12 kts 197°
2026-04-25 13:23 29.71033 106.64536 1373 ft 11 kts 236°
2026-04-25 13:23 29.70995 106.64456 1373 ft 11 kts 217°
2026-04-25 13:24 29.70919 106.64426 1373 ft 11 kts 194°
2026-04-25 13:24 29.70838 106.64403 1373 ft 11 kts 198°
2026-04-25 13:24 29.70759 106.64374 1373 ft 12 kts 198°
2026-04-25 13:24 29.70678 106.64344 1373 ft 12 kts 198°
2026-04-25 13:25 29.70596 106.64316 1373 ft 12 kts 196°
2026-04-25 13:25 29.70513 106.64287 1373 ft 12 kts 198°
2026-04-25 13:25 29.70460 106.64221 1373 ft 11 kts 263°
2026-04-25 13:25 29.70460 106.64187 1373 ft 0 kts 276°
2026-04-25 13:26 29.70460 106.64186 1373 ft 0 kts 276°
2026-04-25 13:26 29.70462 106.64168 1373 ft 6 kts 281°
2026-04-25 13:26 29.70479 106.64098 1373 ft 13 kts 285°
2026-04-25 13:26 29.70489 106.63969 1373 ft 16 kts 271°
2026-04-25 13:27 29.70494 106.63837 1373 ft 16 kts 281°
2026-04-25 13:27 29.70511 106.63752 1373 ft 9 kts 283°
2026-04-25 13:27 29.70550 106.63701 1373 ft 8 kts 355°
2026-04-25 13:27 29.70611 106.63709 1373 ft 9 kts 20°
2026-04-25 13:28 29.70621 106.63713 1373 ft 0 kts 20°
2026-04-25 13:28 29.70659 106.63728 1373 ft 20 kts 18°
2026-04-25 13:29 29.71007 106.63848 1374 ft 84 kts 14°
2026-04-25 13:29 29.71776 106.64111 1374 ft 144 kts 17°
2026-04-25 13:29 29.72874 106.64486 1463 ft 182 kts 16°
2026-04-25 13:30 29.75524 106.65359 2150 ft 203 kts 16°
2026-04-25 13:30 29.76934 106.65824 2502 ft 219 kts 16°
2026-04-25 13:30 29.78427 106.66320 2789 ft 227 kts 16°
2026-04-25 13:31 29.81550 106.67384 3403 ft 236 kts 17°
2026-04-25 13:31 29.83105 106.67955 3710 ft 235 kts 18°
2026-04-25 13:31 29.84651 106.68562 4005 ft 234 kts 19°
2026-04-25 13:31 29.86166 106.69178 4278 ft 234 kts 19°
2026-04-25 13:32 29.87798 106.69804 4573 ft 259 kts 18°
2026-04-25 13:32 29.89545 106.70445 4848 ft 268 kts 17°
2026-04-25 13:32 29.91360 106.71099 5365 ft 277 kts 17°
2026-04-25 13:32 29.93206 106.71457 6245 ft 276 kts 354°
2026-04-25 13:33 29.94987 106.70699 7052 ft 277 kts 321°
2026-04-25 13:33 29.96150 106.68944 7801 ft 280 kts 291°
2026-04-25 13:33 29.96479 106.66749 8519 ft 284 kts 265°
2026-04-25 13:33 29.96209 106.65265 8995 ft 286 kts 250°
2026-04-25 13:34 29.95198 106.62417 9991 ft 289 kts 247°
2026-04-25 13:34 29.94422 106.60275 10568 ft 298 kts 248°
2026-04-25 13:34 29.93616 106.57988 10889 ft 315 kts 248°
2026-04-25 13:34 29.92796 106.55599 11190 ft 331 kts 249°
2026-04-25 13:35 29.91922 106.53020 11485 ft 348 kts 249°
2026-04-25 13:35 29.91036 106.50383 11899 ft 359 kts 249°
2026-04-25 13:35 29.90136 106.47701 12537 ft 361 kts 249°
2026-04-25 13:35 29.89221 106.44970 13118 ft 364 kts 249°
2026-04-25 13:36 29.88306 106.42239 13653 ft 367 kts 249°
2026-04-25 13:36 29.87372 106.39456 14197 ft 370 kts 249°
2026-04-25 13:36 29.86447 106.36700 14722 ft 373 kts 249°
2026-04-25 13:36 29.85505 106.33900 15239 ft 376 kts 248°
2026-04-25 13:37 29.84307 106.31206 15699 ft 379 kts 232°
2026-04-25 13:37 29.82386 106.29143 16168 ft 382 kts 211°
2026-04-25 13:37 29.79945 106.27930 16681 ft 383 kts 197°
2026-04-25 13:37 29.77401 106.27077 17156 ft 385 kts 195°
2026-04-25 13:38 29.74811 106.26244 17582 ft 389 kts 195°
2026-04-25 13:38 29.72199 106.25388 18023 ft 391 kts 196°
2026-04-25 13:38 29.69601 106.24516 18455 ft 394 kts 196°
2026-04-25 13:38 29.66946 106.23674 18871 ft 396 kts 190°
2026-04-25 13:39 29.64179 106.23577 19239 ft 399 kts 171°
2026-04-25 13:39 29.61534 106.24551 19650 ft 401 kts 152°
2026-04-25 13:39 29.59309 106.26482 20039 ft 403 kts 133°
2026-04-25 13:39 29.57497 106.28940 20464 ft 404 kts 129°
2026-04-25 13:40 29.55713 106.31497 20827 ft 408 kts 128°
2026-04-25 13:40 29.53916 106.34075 21201 ft 410 kts 128°
2026-04-25 13:40 29.52115 106.36637 21582 ft 413 kts 129°
2026-04-25 13:40 29.50320 106.39174 21952 ft 415 kts 129°
2026-04-25 13:41 29.48487 106.41751 22321 ft 417 kts 129°
2026-04-25 13:41 29.46635 106.44347 22679 ft 419 kts 129°
2026-04-25 13:41 29.45257 106.46277 22939 ft 421 kts 129°
2026-04-25 13:41 29.44104 106.47888 23162 ft 422 kts 129°
2026-04-25 13:42 29.42708 106.49839 23437 ft 423 kts 129°
2026-04-25 13:42 29.41532 106.51480 23655 ft 424 kts 129°
2026-04-25 13:42 29.40355 106.53123 23861 ft 426 kts 129°
2026-04-25 13:42 29.38977 106.55045 24094 ft 427 kts 129°
2026-04-25 13:43 29.37089 106.57675 24406 ft 429 kts 129°
2026-04-25 13:43 29.35193 106.60315 24710 ft 431 kts 129°
2026-04-25 13:43 29.33308 106.62939 25004 ft 433 kts 129°
2026-04-25 13:43 29.31385 106.65614 25294 ft 435 kts 129°
2026-04-25 13:44 29.29454 106.68309 25577 ft 437 kts 129°
2026-04-25 13:44 29.27525 106.71002 25851 ft 439 kts 129°
2026-04-25 13:44 29.25572 106.73723 26124 ft 441 kts 129°
2026-04-25 13:44 29.23628 106.76424 26381 ft 442 kts 129°
2026-04-25 13:45 29.21673 106.79136 26630 ft 444 kts 129°
2026-04-25 13:45 29.19704 106.81863 26874 ft 446 kts 129°
2026-04-25 13:45 29.17709 106.84625 27113 ft 447 kts 129°
2026-04-25 13:45 29.15717 106.87378 27343 ft 449 kts 129°
2026-04-25 13:46 29.14111 106.89597 27520 ft 450 kts 129°
2026-04-25 13:46 29.12044 106.92274 27709 ft 452 kts 137°
2026-04-25 13:46 29.09444 106.94344 27871 ft 453 kts 154°
2026-04-25 13:46 29.06475 106.95461 28055 ft 454 kts 171°
2026-04-25 13:47 29.03335 106.95673 28249 ft 454 kts 180°
2026-04-25 13:47 29.01442 106.95648 28362 ft 455 kts 181°
2026-04-25 13:47 28.89493 106.95355 28900 ft 456 kts 181°
2026-04-25 13:48 28.83136 106.95282 29073 ft 461 kts 180°
2026-04-25 13:48 28.79941 106.95256 29209 ft 462 kts 180°
2026-04-25 13:48 28.76698 106.95226 29387 ft 461 kts 180°
2026-04-25 13:48 28.73529 106.95194 29568 ft 461 kts 180°
2026-04-25 13:49 28.70453 106.95159 29733 ft 460 kts 180°
2026-04-25 13:49 28.68126 106.95132 29851 ft 460 kts 180°
2026-04-25 13:49 28.64960 106.95157 30005 ft 460 kts 178°
2026-04-25 13:49 28.61751 106.95272 30162 ft 459 kts 178°
2026-04-25 13:50 28.58566 106.95391 30314 ft 459 kts 178°
2026-04-25 13:50 28.55357 106.95513 30462 ft 459 kts 178°
2026-04-25 13:50 28.52194 106.95633 30604 ft 459 kts 178°
2026-04-25 13:50 28.49027 106.95754 30743 ft 458 kts 178°
2026-04-25 13:51 28.45845 106.95875 30879 ft 458 kts 178°
2026-04-25 13:51 28.42660 106.95997 31011 ft 458 kts 178°
2026-04-25 13:51 28.39484 106.96118 31140 ft 458 kts 178°
2026-04-25 13:51 28.36299 106.96240 31267 ft 457 kts 178°
2026-04-25 13:52 28.33120 106.96360 31392 ft 457 kts 178°
2026-04-25 13:52 28.29971 106.96480 31514 ft 457 kts 178°
2026-04-25 13:52 28.27857 106.96561 31596 ft 457 kts 178°
2026-04-25 13:52 28.23642 106.96721 31756 ft 456 kts 178°
2026-04-25 13:53 28.20491 106.96840 31874 ft 456 kts 178°
2026-04-25 13:53 28.17325 106.96960 31991 ft 456 kts 178°
2026-04-25 13:53 28.14164 106.97080 32107 ft 456 kts 178°
2026-04-25 13:53 28.10986 106.97201 32222 ft 455 kts 178°
2026-04-25 13:54 28.07826 106.97321 32335 ft 455 kts 178°
2026-04-25 13:54 28.04694 106.97439 32445 ft 455 kts 178°
2026-04-25 13:54 28.01544 106.97558 32554 ft 455 kts 178°
2026-04-25 13:54 27.98385 106.97678 32662 ft 455 kts 178°
2026-04-25 13:55 27.96269 106.97758 32734 ft 454 kts 178°
2026-04-25 13:55 27.92053 106.97917 32874 ft 454 kts 178°
2026-04-25 13:55 27.88906 106.98035 32977 ft 454 kts 178°
2026-04-25 13:56 27.82619 106.98272 33177 ft 454 kts 178°
2026-04-25 13:56 27.76348 106.98508 33336 ft 454 kts 178°
2026-04-25 13:57 27.70048 106.98744 33475 ft 455 kts 178°
2026-04-25 13:57 27.63730 106.98982 33608 ft 455 kts 178°
2026-04-25 13:58 27.57400 106.99219 33733 ft 456 kts 178°
2026-04-25 13:58 27.51069 106.99457 33851 ft 456 kts 178°
2026-04-25 13:59 27.44741 106.99693 33960 ft 457 kts 178°
2026-04-25 13:59 27.38434 106.99929 34062 ft 457 kts 178°
2026-04-25 14:00 27.33132 107.00127 34144 ft 457 kts 178°
2026-04-25 14:00 27.25754 107.00404 34250 ft 458 kts 178°
2026-04-25 14:00 27.22587 107.00523 34492 ft 453 kts 178°
2026-04-25 14:01 27.19447 107.00641 34744 ft 448 kts 178°
2026-04-25 14:01 27.16349 107.00758 34991 ft 444 kts 178°
2026-04-25 14:01 27.13285 107.00874 35090 ft 444 kts 178°
2026-04-25 14:02 27.07065 107.01107 35101 ft 447 kts 178°
2026-04-25 14:02 27.00907 107.02080 35100 ft 450 kts 161°
2026-04-25 14:03 26.96256 107.04756 35102 ft 451 kts 143°
2026-04-25 14:03 26.93898 107.07113 35101 ft 452 kts 132°
2026-04-25 14:03 26.92006 107.09877 35101 ft 452 kts 121°
2026-04-25 14:03 26.90594 107.13007 35100 ft 453 kts 110°
2026-04-25 14:04 26.89634 107.16407 35106 ft 454 kts 105°
2026-04-25 14:04 26.87979 107.23235 35105 ft 456 kts 105°
2026-04-25 14:05 26.86322 107.30111 35105 ft 458 kts 105°
2026-04-25 14:05 26.84647 107.36987 35104 ft 459 kts 105°
2026-04-25 14:06 26.82952 107.43908 35104 ft 460 kts 105°
2026-04-25 14:06 26.81257 107.50799 35104 ft 461 kts 105°
2026-04-25 14:07 26.79549 107.57710 35104 ft 461 kts 105°
2026-04-25 14:07 26.77832 107.64652 35104 ft 461 kts 105°
2026-04-25 14:08 26.76121 107.71587 35104 ft 461 kts 105°
2026-04-25 14:08 26.74406 107.78516 35104 ft 461 kts 105°
2026-04-25 14:09 26.72689 107.85429 35104 ft 461 kts 105°
2026-04-25 14:09 26.70970 107.92324 35104 ft 461 kts 105°
2026-04-25 14:10 26.69246 107.99227 35104 ft 461 kts 105°
2026-04-25 14:10 26.67519 108.06123 35104 ft 461 kts 105°
2026-04-25 14:11 26.66286 108.11038 35104 ft 461 kts 105°
2026-04-25 14:11 26.64812 108.16901 35104 ft 461 kts 105°
2026-04-25 14:12 26.63075 108.23798 35104 ft 461 kts 105°
2026-04-25 14:12 26.61336 108.30689 35104 ft 461 kts 105°
2026-04-25 14:13 26.59594 108.37574 35104 ft 461 kts 105°
2026-04-25 14:13 26.57853 108.44444 35104 ft 461 kts 105°
2026-04-25 14:14 26.56107 108.51319 35104 ft 461 kts 105°
2026-04-25 14:14 26.54346 108.58237 35104 ft 461 kts 105°
2026-04-25 14:15 26.52595 108.65102 35104 ft 461 kts 106°
2026-04-25 14:15 26.50826 108.72046 35104 ft 461 kts 106°
2026-04-25 14:16 26.49070 108.78918 35104 ft 461 kts 106°
2026-04-25 14:16 26.47313 108.85774 35104 ft 461 kts 106°
2026-04-25 14:17 26.45544 108.92658 35104 ft 461 kts 106°
2026-04-25 14:17 26.43765 108.99522 35103 ft 461 kts 107°
2026-04-25 14:18 26.41567 109.06271 35104 ft 461 kts 112°
2026-04-25 14:18 26.39030 109.12859 35104 ft 461 kts 113°
2026-04-25 14:19 26.36490 109.19418 35104 ft 461 kts 113°
2026-04-25 14:19 26.34081 109.25648 35104 ft 461 kts 113°
2026-04-25 14:20 26.31531 109.32238 35104 ft 461 kts 113°
2026-04-25 14:20 26.29004 109.38753 35104 ft 461 kts 113°
2026-04-25 14:21 26.26443 109.45344 35104 ft 461 kts 113°
2026-04-25 14:21 26.23900 109.51881 35105 ft 461 kts 113°
2026-04-25 14:22 26.21356 109.58407 35105 ft 461 kts 113°
2026-04-25 14:22 26.18783 109.64999 35105 ft 461 kts 113°
2026-04-25 14:23 26.16242 109.71516 35104 ft 461 kts 114°
2026-04-25 14:23 26.13676 109.78085 35104 ft 461 kts 114°
2026-04-25 14:24 26.11107 109.84641 35104 ft 461 kts 114°
2026-04-25 14:24 26.08554 109.91139 35104 ft 461 kts 114°
2026-04-25 14:25 26.05973 109.97699 35104 ft 461 kts 114°
2026-04-25 14:25 26.03394 110.04243 35104 ft 461 kts 114°
2026-04-25 14:26 26.00821 110.10763 35104 ft 461 kts 114°
2026-04-25 14:26 25.98239 110.17293 35104 ft 461 kts 114°
2026-04-25 14:27 25.95668 110.23786 35105 ft 461 kts 114°
2026-04-25 14:27 25.93084 110.30301 35105 ft 461 kts 114°
2026-04-25 14:28 25.90499 110.36816 35105 ft 461 kts 114°
2026-04-25 14:28 25.87887 110.43336 35104 ft 461 kts 114°
2026-04-25 14:29 25.85280 110.49813 35104 ft 461 kts 114°
2026-04-25 14:29 25.82683 110.56293 35104 ft 461 kts 114°
2026-04-25 14:30 25.80077 110.62803 35104 ft 461 kts 114°
2026-04-25 14:30 25.76175 110.72574 35104 ft 461 kts 114°
2026-04-25 14:31 25.73567 110.79092 35104 ft 461 kts 114°
2026-04-25 14:31 25.70962 110.85581 35104 ft 461 kts 114°
2026-04-25 14:32 25.68356 110.92060 35104 ft 461 kts 114°
2026-04-25 14:32 25.65735 110.98560 35104 ft 461 kts 114°
2026-04-25 14:33 25.63126 111.05023 35104 ft 461 kts 114°
2026-04-25 14:33 25.60498 111.11521 35104 ft 461 kts 114°
2026-04-25 14:34 25.57887 111.17970 35104 ft 461 kts 114°
2026-04-25 14:34 25.55251 111.24469 35104 ft 461 kts 114°
2026-04-25 14:35 25.52598 111.30998 35104 ft 461 kts 114°
2026-04-25 14:35 25.49935 111.37543 35104 ft 461 kts 114°
2026-04-25 14:36 25.47282 111.44057 35104 ft 461 kts 114°
2026-04-25 14:36 25.44606 111.50613 35104 ft 461 kts 114°
2026-04-25 14:37 25.41931 111.57158 35104 ft 461 kts 114°
2026-04-25 14:37 25.39249 111.63709 35105 ft 461 kts 114°
2026-04-25 14:38 25.36572 111.70259 35104 ft 461 kts 114°
2026-04-25 14:38 25.33896 111.76801 35104 ft 461 kts 114°
2026-04-25 14:39 25.31239 111.83272 35104 ft 461 kts 114°
2026-04-25 14:39 25.28562 111.89777 35104 ft 461 kts 114°
2026-04-25 14:40 25.25892 111.96250 35104 ft 461 kts 114°
2026-04-25 14:40 25.23221 112.02717 35104 ft 461 kts 114°
2026-04-25 14:41 25.20552 112.09170 35104 ft 461 kts 114°
2026-04-25 14:41 25.17882 112.15614 35104 ft 461 kts 114°
2026-04-25 14:42 25.16096 112.19918 35104 ft 461 kts 114°
2026-04-25 14:42 25.12524 112.28517 35104 ft 461 kts 114°
2026-04-25 14:43 25.09849 112.34939 35105 ft 461 kts 114°
2026-04-25 14:43 25.07176 112.41356 35105 ft 461 kts 114°
2026-04-25 14:44 25.04488 112.47800 35105 ft 461 kts 114°
2026-04-25 14:44 25.01800 112.54230 35105 ft 461 kts 114°
2026-04-25 14:45 24.99104 112.60671 35105 ft 461 kts 114°
2026-04-25 14:45 24.96412 112.67097 35105 ft 461 kts 115°
2026-04-25 14:46 24.93706 112.73573 35104 ft 461 kts 115°
2026-04-25 14:46 24.90974 112.80084 35104 ft 461 kts 115°
2026-04-25 14:47 24.89128 112.84465 35104 ft 461 kts 115°
2026-04-25 14:47 24.85460 112.93080 35104 ft 461 kts 115°
2026-04-25 14:48 24.82699 112.99590 35104 ft 461 kts 115°
2026-04-25 14:48 24.79960 113.06059 35104 ft 461 kts 115°
2026-04-25 14:49 24.77229 113.12505 35104 ft 461 kts 115°
2026-04-25 14:49 24.74491 113.18960 35104 ft 461 kts 115°
2026-04-25 14:50 24.71749 113.25416 35104 ft 461 kts 115°
2026-04-25 14:50 24.69019 113.31835 35104 ft 461 kts 115°
2026-04-25 14:51 24.66275 113.38278 35104 ft 461 kts 115°
2026-04-25 14:51 24.63509 113.44762 35104 ft 461 kts 115°
2026-04-25 14:52 24.60775 113.51161 35104 ft 461 kts 115°
2026-04-25 14:52 24.58962 113.55400 35104 ft 461 kts 115°
2026-04-25 14:53 24.55311 113.63919 35104 ft 461 kts 115°
2026-04-25 14:53 24.52565 113.70340 35104 ft 461 kts 115°
2026-04-25 14:54 24.49827 113.76737 35104 ft 461 kts 115°
2026-04-25 14:54 24.47084 113.83123 35104 ft 461 kts 115°
2026-04-25 14:55 24.44649 113.88777 35104 ft 461 kts 115°
2026-04-25 14:55 24.41965 113.95007 35104 ft 461 kts 115°
2026-04-25 14:56 24.39221 114.01368 35104 ft 461 kts 115°
2026-04-25 14:56 24.36816 114.07869 35104 ft 461 kts 109°
2026-04-25 14:57 24.35054 114.14647 35104 ft 461 kts 102°
2026-04-25 14:57 24.33976 114.21588 35104 ft 461 kts 96°
2026-04-25 14:58 24.33333 114.28587 35104 ft 461 kts 95°
2026-04-25 14:58 24.32703 114.35589 35104 ft 461 kts 95°
2026-04-25 14:59 24.32062 114.42564 35104 ft 461 kts 96°
2026-04-25 14:59 24.31410 114.49562 35104 ft 461 kts 96°
2026-04-25 15:00 24.30783 114.56576 35104 ft 461 kts 95°
2026-04-25 15:00 24.30165 114.63756 35105 ft 461 kts 95°
2026-04-25 15:01 24.29549 114.70867 35104 ft 461 kts 95°
2026-04-25 15:01 24.28929 114.77964 35104 ft 461 kts 95°
2026-04-25 15:02 24.28305 114.85044 35104 ft 461 kts 95°
2026-04-25 15:02 24.27693 114.92158 35104 ft 461 kts 95°
2026-04-25 15:03 24.27085 114.99302 35104 ft 461 kts 95°
2026-04-25 15:03 24.26470 115.06485 35104 ft 461 kts 95°
2026-04-25 15:04 24.25861 115.13541 35104 ft 461 kts 95°
2026-04-25 15:04 24.25241 115.20703 35104 ft 461 kts 95°
2026-04-25 15:05 24.24624 115.27779 35104 ft 461 kts 95°
2026-04-25 15:06 24.23709 115.38256 35104 ft 461 kts 95°
2026-04-25 15:06 24.23099 115.45213 35104 ft 461 kts 95°
2026-04-25 15:07 24.22594 115.52234 35104 ft 461 kts 94°
2026-04-25 15:07 24.22113 115.59270 35105 ft 461 kts 94°
2026-04-25 15:08 24.21626 115.66275 35105 ft 461 kts 94°
2026-04-25 15:08 24.21134 115.73256 35104 ft 461 kts 94°
2026-04-25 15:09 24.20630 115.80321 35104 ft 461 kts 95°
2026-04-25 15:09 24.19868 115.90885 35104 ft 461 kts 95°
2026-04-25 15:10 24.19360 115.97882 35104 ft 461 kts 95°
2026-04-25 15:11 24.18593 116.08433 35104 ft 461 kts 94°
2026-04-25 15:11 24.18077 116.15466 35104 ft 461 kts 95°
2026-04-25 15:12 24.17301 116.25937 35104 ft 461 kts 95°
2026-04-25 15:12 24.16952 116.30618 35104 ft 461 kts 95°
2026-04-25 15:13 24.16014 116.43459 35104 ft 461 kts 92°
2026-04-25 15:14 24.15842 116.50504 35104 ft 461 kts 91°
2026-04-25 15:14 24.15722 116.57536 35105 ft 461 kts 91°
2026-04-25 15:15 24.15604 116.64146 35105 ft 461 kts 91°
2026-04-25 15:15 24.15472 116.71307 35104 ft 461 kts 91°
2026-04-25 15:16 24.15334 116.78545 35104 ft 461 kts 91°
2026-04-25 15:16 24.15119 116.89435 35104 ft 461 kts 91°
2026-04-25 15:17 24.14901 117.00128 35104 ft 461 kts 91°
2026-04-25 15:18 24.14754 117.07104 35104 ft 461 kts 91°
2026-04-25 15:18 24.14527 117.17665 35104 ft 461 kts 91°
2026-04-25 15:19 24.14423 117.22365 35104 ft 461 kts 91°
2026-04-25 15:19 24.14214 117.31699 35105 ft 461 kts 91°
2026-04-25 15:20 24.14055 117.38742 35104 ft 461 kts 90°
2026-04-25 15:20 24.14197 117.42220 34936 ft 462 kts 83°
2026-04-25 15:20 24.14733 117.45702 34682 ft 460 kts 76°
2026-04-25 15:21 24.15639 117.49016 34430 ft 457 kts 69°
2026-04-25 15:21 24.16910 117.52191 34177 ft 455 kts 62°
2026-04-25 15:21 24.18526 117.55186 33922 ft 453 kts 55°
2026-04-25 15:21 24.20434 117.57910 33669 ft 453 kts 48°
2026-04-25 15:22 24.22562 117.60461 33420 ft 453 kts 46°
2026-04-25 15:22 24.24760 117.62997 33166 ft 453 kts 46°
2026-04-25 15:22 24.26980 117.65547 32912 ft 454 kts 46°
2026-04-25 15:22 24.29128 117.68035 32664 ft 454 kts 47°
2026-04-25 15:23 24.31298 117.70561 32413 ft 455 kts 47°
2026-04-25 15:23 24.33473 117.73097 32162 ft 455 kts 47°
2026-04-25 15:23 24.35650 117.75637 31911 ft 456 kts 47°
2026-04-25 15:23 24.37781 117.78123 31666 ft 456 kts 47°
2026-04-25 15:24 24.40012 117.80728 31409 ft 457 kts 47°
2026-04-25 15:24 24.42244 117.83334 31152 ft 457 kts 47°
2026-04-25 15:24 24.44461 117.85925 30897 ft 458 kts 47°
2026-04-25 15:24 24.45912 117.87620 30731 ft 458 kts 47°
2026-04-25 15:25 24.48864 117.91072 30392 ft 459 kts 47°
2026-04-25 15:25 24.51066 117.93649 30139 ft 459 kts 47°
2026-04-25 15:25 24.53303 117.96268 29885 ft 460 kts 47°
2026-04-25 15:25 24.55546 117.98895 29628 ft 460 kts 47°
2026-04-25 15:26 24.57772 118.01505 29373 ft 461 kts 47°
2026-04-25 15:26 24.59990 118.04105 29120 ft 461 kts 47°
2026-04-25 15:26 24.62240 118.06746 28862 ft 460 kts 47°
2026-04-25 15:26 24.64456 118.09347 28607 ft 458 kts 47°
2026-04-25 15:27 24.66649 118.11922 28353 ft 456 kts 47°
2026-04-25 15:27 24.68792 118.14439 28105 ft 454 kts 47°
2026-04-25 15:27 24.73262 118.19697 27583 ft 451 kts 47°
2026-04-25 15:28 24.75444 118.22266 27327 ft 449 kts 47°
2026-04-25 15:28 24.77600 118.24807 27071 ft 447 kts 47°
2026-04-25 15:28 24.79759 118.27351 26794 ft 445 kts 47°
2026-04-25 15:28 24.81912 118.29888 26495 ft 443 kts 47°
2026-04-25 15:29 24.84089 118.32455 26098 ft 441 kts 47°
2026-04-25 15:29 24.86248 118.35001 25634 ft 437 kts 47°
2026-04-25 15:29 24.88391 118.37532 25142 ft 434 kts 47°
2026-04-25 15:29 24.90497 118.40019 24643 ft 430 kts 47°
2026-04-25 15:30 24.91874 118.41647 24313 ft 428 kts 47°
2026-04-25 15:30 24.94634 118.44912 23643 ft 423 kts 47°
2026-04-25 15:30 24.96690 118.47344 23140 ft 419 kts 47°
2026-04-25 15:30 24.98752 118.49786 22632 ft 415 kts 47°
2026-04-25 15:31 25.00790 118.52200 22129 ft 412 kts 47°
2026-04-25 15:31 25.02764 118.54540 21636 ft 408 kts 47°
2026-04-25 15:31 25.04759 118.56906 21139 ft 404 kts 47°
2026-04-25 15:31 25.06731 118.59245 20642 ft 401 kts 47°
2026-04-25 15:32 25.08644 118.61516 20159 ft 397 kts 47°
2026-04-25 15:32 25.10580 118.63815 19665 ft 394 kts 46°
2026-04-25 15:32 25.12488 118.66068 19180 ft 391 kts 47°
2026-04-25 15:33 25.16272 118.70568 18205 ft 384 kts 47°
2026-04-25 15:33 25.18157 118.72813 17714 ft 381 kts 47°
2026-04-25 15:33 25.19974 118.74979 17242 ft 378 kts 47°
2026-04-25 15:33 25.21746 118.77089 16781 ft 374 kts 47°
2026-04-25 15:34 25.23522 118.79205 16317 ft 371 kts 47°
2026-04-25 15:34 25.25276 118.81296 15855 ft 368 kts 47°
2026-04-25 15:34 25.27010 118.83363 15399 ft 365 kts 47°
2026-04-25 15:34 25.28154 118.84727 15096 ft 363 kts 47°
2026-04-25 15:35 25.32111 118.89452 14047 ft 356 kts 47°
2026-04-25 15:35 25.33704 118.91357 13621 ft 354 kts 47°
2026-04-25 15:35 25.35382 118.93342 13176 ft 351 kts 46°
2026-04-25 15:36 25.38714 118.97224 12297 ft 345 kts 46°
2026-04-25 15:36 25.40359 118.99139 11861 ft 343 kts 46°
2026-04-25 15:36 25.41981 119.01029 11431 ft 340 kts 46°
2026-04-25 15:37 25.43613 119.02932 10995 ft 337 kts 46°
2026-04-25 15:37 25.45220 119.04808 10567 ft 335 kts 46°
2026-04-25 15:37 25.46800 119.06654 10304 ft 324 kts 46°
2026-04-25 15:37 25.48310 119.08418 10231 ft 307 kts 46°
2026-04-25 15:38 25.49754 119.10104 10154 ft 292 kts 46°
2026-04-25 15:38 25.51100 119.11678 10089 ft 279 kts 46°
2026-04-25 15:38 25.52429 119.13232 10030 ft 273 kts 46°
2026-04-25 15:38 25.53746 119.14773 9716 ft 273 kts 46°
2026-04-25 15:39 25.55044 119.16291 9410 ft 270 kts 46°
2026-04-25 15:39 25.56331 119.17798 9111 ft 267 kts 46°
2026-04-25 15:39 25.57589 119.19272 8821 ft 265 kts 46°
2026-04-25 15:39 25.58852 119.20753 8531 ft 262 kts 46°
2026-04-25 15:40 25.60102 119.22218 8245 ft 260 kts 46°
2026-04-25 15:40 25.60503 119.22689 8153 ft 259 kts 46°
2026-04-25 15:40 25.62570 119.25114 7842 ft 265 kts 46°
2026-04-25 15:40 25.63869 119.26643 7865 ft 277 kts 46°
2026-04-25 15:41 25.65203 119.28212 7874 ft 279 kts 46°
2026-04-25 15:41 25.66533 119.29778 7878 ft 280 kts 46°
2026-04-25 15:41 25.67864 119.31345 7880 ft 280 kts 46°
2026-04-25 15:41 25.69201 119.32918 7881 ft 280 kts 46°
2026-04-25 15:42 25.70538 119.34493 7881 ft 280 kts 46°
2026-04-25 15:42 25.71835 119.36021 7874 ft 266 kts 46°
2026-04-25 15:42 25.73066 119.37476 7868 ft 248 kts 49°
2026-04-25 15:42 25.73890 119.39073 7827 ft 232 kts 80°
2026-04-25 15:43 25.73910 119.40795 7868 ft 223 kts 95°
2026-04-25 15:43 25.73777 119.42351 7875 ft 222 kts 95°
2026-04-25 15:43 25.73626 119.44079 7879 ft 222 kts 95°
2026-04-25 15:43 25.73489 119.45780 7904 ft 219 kts 95°
2026-04-25 15:44 25.73369 119.47384 7948 ft 201 kts 94°
2026-04-25 15:44 25.73264 119.48852 7868 ft 177 kts 94°
2026-04-25 15:44 25.73172 119.50179 7903 ft 168 kts 94°
2026-04-25 15:44 25.73087 119.51424 7872 ft 159 kts 94°
2026-04-25 15:45 25.73004 119.52657 7874 ft 158 kts 94°
2026-04-25 15:45 25.72931 119.53870 7877 ft 158 kts 86°
2026-04-25 15:45 25.73360 119.54955 7843 ft 158 kts 43°
2026-04-25 15:45 25.73638 119.55216 7854 ft 158 kts 35°
2026-04-25 15:46 25.75247 119.56162 7838 ft 158 kts 24°
2026-04-25 15:46 25.76251 119.56671 7837 ft 158 kts 24°
2026-04-25 15:46 25.77236 119.57184 7738 ft 157 kts 25°
2026-04-25 15:46 25.78219 119.57717 7709 ft 155 kts 26°
2026-04-25 15:47 25.79172 119.58249 7416 ft 152 kts 26°
2026-04-25 15:47 25.80112 119.58781 6956 ft 155 kts 27°
2026-04-25 15:47 25.81068 119.59324 6524 ft 155 kts 27°
2026-04-25 15:47 25.82023 119.59868 6107 ft 154 kts 27°
2026-04-25 15:48 25.82958 119.60399 5701 ft 153 kts 27°
2026-04-25 15:48 25.83896 119.60931 5294 ft 152 kts 27°
2026-04-25 15:48 25.84832 119.61461 4887 ft 151 kts 26°
2026-04-25 15:48 25.85757 119.61984 4486 ft 150 kts 26°
2026-04-25 15:49 25.86733 119.62534 3801 ft 169 kts 26°
2026-04-25 15:49 25.87807 119.63133 3106 ft 183 kts 26°
2026-04-25 15:49 25.88999 119.63792 2224 ft 201 kts 26°
2026-04-25 15:49 25.90291 119.64500 1366 ft 210 kts 26°
2026-04-25 15:50 25.90080 119.64456 754 ft 203 kts 25°
2026-04-25 15:50 25.89064 119.63917 631 ft 174 kts 21°
2026-04-25 15:50 25.90089 119.64462 468 ft 155 kts 25°
2026-04-25 15:50 25.90996 119.64943 323 ft 136 kts 26°
2026-04-25 15:51 25.91860 119.65424 128 ft 140 kts 27°
2026-04-25 15:51 25.92434 119.65752 52 ft 126 kts 27°
2026-04-25 15:51 25.92989 119.66080 52 ft 8 kts 27°
2026-04-25 15:51 25.93067 119.66120 52 ft 29 kts 25°
2026-04-25 15:52 25.93161 119.66167 51 ft 4 kts 24°
2026-04-25 15:52 25.93249 119.66215 52 ft 26 kts 27°
2026-04-25 15:52 25.93410 119.66305 52 ft 25 kts 27°
2026-04-25 15:52 25.93553 119.66404 52 ft 23 kts 42°
2026-04-25 15:53 25.93642 119.66531 52 ft 13 kts 52°
2026-04-25 15:53 25.93650 119.66542 51 ft 0 kts 52°
2026-04-25 15:53 25.93651 119.66544 51 ft 2 kts 52°
2026-04-25 15:54 25.93682 119.66672 51 ft 28 kts 114°
2026-04-25 15:54 25.93614 119.66782 51 ft 12 kts 117°
2026-04-25 15:54 25.93621 119.66859 51 ft 11 kts 19°
2026-04-25 15:54 25.93693 119.66900 51 ft 11 kts 63°
2026-04-25 15:55 25.93683 119.66939 51 ft 4 kts 123°
2026-04-25 15:55 25.93662 119.66973 51 ft 5 kts 121°
2026-04-25 15:55 25.93655 119.66987 51 ft 0 kts 116°